Pineville, WV

10:35 PM EST on December 10, 2019 (GMT -0500)
Pineville

Weather History for KI16 - June, 2019

Change the Weather History Date:

Tuesday, June 4, 2019

  Actual Average (KBKW) Record (KBKW)
Temperature  
Mean Temperature 62 °F -  
Max Temperature 79 °F 72 °F 92 °F (1925)
Min Temperature 46 °F 52 °F 34 °F (1956)
Degree Days  
Heating Degree Days 2    
Growing Degree Days 12 (Base 50)    
Moisture  
Dew Point 52 °F    
Average Humidity 74    
Maximum Humidity 99    
Minimum Humidity 32    
Precipitation  
Precipitation 0.00 in - - ()
Sea Level Pressure  
Sea Level Pressure 30.18 in    
Wind  
Wind Speed - (North)    
Max Wind Speed -    
Max Gust Speed -    
Visibility 10 miles    
Events      
Averages and records for this station are not official NWS values.
T = Trace of Precipitation, MM = Missing Value Source: NWS Daily Summary

Daily Weather History Graph

Daily Weather History Graph

Search for Another Location

Airport or City:

Astronomy

Jun. 04, 2019 Rise Set
Actual Time 6:05 AM EDT 8:43 PM EDT
Civil Twilight 5:34 AM EDT 9:14 PM EDT
Nautical Twilight 4:56 AM EDT 9:52 PM EDT
Astronomical Twilight 4:13 AM EDT 10:35 PM EDT
Moon 7:13 AM EDT (6/4) 10:10 PM EDT (6/4)
Length of Visible Light 15h 39m
Length of Day
14h 38m
New Moon, 2% of the Moon is Illuminated
Jun 4
New Moon
Jun 10
First Quarter
Jun 17
Full
Jun 25
Last Quarter
Jul 2
New

Hourly Weather History & Observations

Time (EDT) Temp. Dew Point Humidity Pressure Visibility Wind Dir Wind Speed Gust Speed Precip Events Conditions
12:15 AM 50.7 °F 49.1 °F 94% 30.23 in 10.0 mi North - - N/A   Clear
12:35 AM 50.4 °F 49.1 °F 95% 30.23 in 10.0 mi North - - N/A   Clear
12:55 AM 50.4 °F 48.9 °F 95% 30.22 in 10.0 mi North - - N/A   Clear
1:15 AM 49.8 °F 48.4 °F 95% 30.22 in 10.0 mi North - - N/A   Clear
1:35 AM 49.6 °F 48.6 °F 96% 30.21 in 10.0 mi North - - N/A   Clear
1:55 AM 49.5 °F 48.4 °F 96% 30.21 in 10.0 mi North - - N/A   Clear
2:15 AM 49.1 °F 48.2 °F 97% 30.21 in 10.0 mi North - - N/A   Clear
2:35 AM 49.1 °F 48.2 °F 97% 30.22 in 10.0 mi North - - N/A   Clear
2:55 AM 48.7 °F 47.8 °F 97% 30.23 in 10.0 mi North - - N/A   Clear
3:15 AM 48.4 °F 47.5 °F 97% 30.23 in 10.0 mi North - - N/A   Clear
3:35 AM 48.2 °F 47.3 °F 97% 30.23 in 10.0 mi North - - N/A   Clear
3:55 AM 48.0 °F 47.3 °F 97% 30.23 in 10.0 mi North - - N/A   Clear
4:15 AM 47.8 °F 47.1 °F 97% 30.23 in 10.0 mi North - - N/A   Clear
4:35 AM 47.7 °F 46.9 °F 97% 30.23 in 10.0 mi North - - N/A   Clear
4:55 AM 47.5 °F 46.8 °F 97% 30.24 in 10.0 mi North - - N/A   Clear
5:15 AM 47.3 °F 46.4 °F 97% 30.24 in 10.0 mi North - - N/A   Clear
5:35 AM 46.9 °F 46.2 °F 97% 30.23 in 10.0 mi North - - N/A   Clear
5:55 AM 46.9 °F 46.2 °F 97% 30.24 in 10.0 mi North - - N/A   Clear
6:15 AM 46.4 °F 45.7 °F 97% 30.24 in 10.0 mi North - - N/A   Clear
6:35 AM 46.4 °F 45.7 °F 97% 30.25 in 10.0 mi North - - N/A   Clear
6:55 AM 46.8 °F 46.4 °F 99% 30.25 in 10.0 mi North - - N/A   Clear
7:15 AM 47.3 °F 46.8 °F 98% 30.25 in 10.0 mi North - - N/A   Clear
7:35 AM 48.2 °F 47.7 °F 98% 30.26 in 10.0 mi North - - N/A   Clear
7:55 AM 48.7 °F 47.8 °F 97% 30.26 in 10.0 mi North - - N/A   Clear
8:15 AM 50.0 °F 48.6 °F 95% 30.26 in 10.0 mi North - - N/A   Clear
8:35 AM 52.7 °F 50.2 °F 91% 30.26 in 10.0 mi North - - N/A   Clear
8:55 AM 54.3 °F 50.4 °F 86% 30.25 in 10.0 mi North - - N/A   Clear
9:15 AM 57.2 °F 50.9 °F 79% 30.26 in 10.0 mi North - - N/A   Clear
9:35 AM 59.7 °F 51.4 °F 74% 30.26 in 10.0 mi North - - N/A   Unknown
9:55 AM 61.7 °F 51.1 °F 68% 30.26 in 10.0 mi North - - N/A   Unknown
10:15 AM 63.9 °F 51.1 °F 63% 30.25 in 10.0 mi North - - N/A   Unknown
10:35 AM 66.7 °F 50.5 °F 56% 30.25 in 10.0 mi North - - N/A   Unknown
10:55 AM 68.5 °F 48.7 °F 49% 30.24 in 10.0 mi North - - N/A   Clear
11:15 AM 69.4 °F 48.7 °F 48% 30.23 in 10.0 mi North - - N/A   Clear
11:35 AM 71.4 °F 47.8 °F 43% 30.22 in 10.0 mi North - - N/A   Clear
11:55 AM 71.4 °F 49.6 °F 46% 30.22 in 10.0 mi North - - N/A   Clear
12:15 PM 73.8 °F 50.0 °F 43% 30.21 in 10.0 mi North - - N/A   Clear
12:35 PM 75.0 °F 47.7 °F 38% 30.21 in 10.0 mi North - - N/A   Clear
12:55 PM 74.5 °F 47.8 °F 39% 30.20 in 10.0 mi North - - N/A   Clear
1:15 PM 75.7 °F 49.1 °F 39% 30.20 in 10.0 mi North - - N/A   Clear
1:35 PM 75.7 °F 48.0 °F 37% 30.20 in 10.0 mi North - - N/A   Clear
1:55 PM 76.6 °F 47.8 °F 36% 30.19 in 10.0 mi North - - N/A   Clear
2:15 PM 77.5 °F 45.7 °F 32% 30.18 in 10.0 mi North - - N/A   Clear
2:35 PM 78.8 °F 47.3 °F 33% 30.18 in 10.0 mi North - - N/A   Clear
2:55 PM 77.2 °F 45.1 °F 32% 30.17 in 10.0 mi North - - N/A   Clear
3:15 PM 79.0 °F 48.6 °F 34% 30.16 in 10.0 mi North - - N/A   Clear
3:35 PM 79.9 °F 49.5 °F 34% 30.16 in 10.0 mi North - - N/A   Clear
3:55 PM 78.4 °F 49.3 °F 36% 30.15 in 10.0 mi North - - N/A   Clear
4:15 PM 79.5 °F 50.2 °F 36% 30.14 in 10.0 mi North - - N/A   Clear
4:35 PM 79.3 °F 47.3 °F 32% 30.14 in 10.0 mi North - - N/A   Clear
4:55 PM 78.6 °F 48.0 °F 34% 30.13 in 10.0 mi North - - N/A   Clear
5:15 PM 75.7 °F 59.2 °F 56% 30.13 in 10.0 mi North - - N/A   Clear
5:35 PM 74.3 °F 59.7 °F 60% 30.12 in 10.0 mi North - - N/A   Clear
5:55 PM 73.8 °F 60.1 °F 62% 30.11 in 10.0 mi North - - N/A   Clear
6:15 PM 72.5 °F 60.6 °F 66% 30.11 in 10.0 mi North - - N/A   Clear
6:35 PM 71.8 °F 59.9 °F 66% 30.10 in 10.0 mi North - - N/A   Clear
6:55 PM 70.7 °F 60.4 °F 70% 30.10 in 10.0 mi North - - N/A   Clear
7:15 PM 70.7 °F 61.2 °F 72% 30.09 in 10.0 mi North - - N/A   Clear
7:35 PM 70.0 °F 61.2 °F 73% 30.09 in 10.0 mi North - - N/A   Clear
7:55 PM 68.5 °F 61.0 °F 77% 30.09 in 10.0 mi North - - N/A   Clear
8:15 PM 67.5 °F 61.2 °F 80% 30.08 in 10.0 mi North - - N/A   Clear
8:35 PM 66.0 °F 58.5 °F 77% 30.08 in 10.0 mi North - - N/A   Clear
8:55 PM 64.6 °F 58.8 °F 82% 30.08 in 10.0 mi North - - N/A   Clear
9:15 PM 64.0 °F 59.0 °F 84% 30.08 in 10.0 mi North - - N/A   Clear
9:35 PM 63.1 °F 59.4 °F 87% 30.08 in 10.0 mi North - - N/A   Clear
9:55 PM 62.6 °F 59.0 °F 88% 30.09 in 10.0 mi North - - N/A   Clear
10:15 PM 61.7 °F 59.0 °F 91% 30.09 in 10.0 mi North - - N/A   Clear
10:35 PM 61.3 °F 59.0 °F 92% 30.10 in 10.0 mi North - - N/A   Clear
10:55 PM 60.8 °F 58.6 °F 93% 30.10 in 10.0 mi North - - N/A   Clear
11:15 PM 60.1 °F 58.3 °F 94% 30.10 in 10.0 mi North - - N/A   Clear
11:35 PM 59.9 °F 58.3 °F 94% 30.10 in 7.0 mi North - - N/A   Clear
11:55 PM 59.9 °F 58.5 °F 95% 30.10 in 10.0 mi North - - N/A   Clear